Location: Santa Barbara
(34.4500°N, 119.7700°W)
Time: 01:29:20
(UTC-08:00)

Envisat - Pass Details

Date: 30 October 2019
Orbit: 764 x 766 km, 98.1° (Epoch: 22 November)

Event Time Altitude Azimuth Distance (km) Brightness Sun altitude
Rises 06:27:00 0° 39° (NE) 3,233 6.7 -11.0°
Reaches altitude 10° 06:31:08 10° 72° (ENE) 2,300 6.6 -10.1°
Maximum altitude 06:32:45 11° 91° (E) 2,198 6.9 -9.8°
Drops below altitude 10° 06:34:22 10° 110° (ESE) 2,295 7.0 -9.5°
Sets 06:38:28 0° 143° (SE) 3,215 7.0 -8.6°
